Other Public Products
Issued by NWS Charleston, SC

Current Version | Previous Version | Graphics & Text | Print | Product List | Glossary On
Versions: 1 2 3 4 5 6 7 8 9 10 11 12 13 14 15 16 17 18 19 20 21 22 23 24 25 26 27 28 29 30 31 32 33 34 35 36 37 38 39 40 41 42 43 44 45 46 47 48 49 50
000
FPUS82 KCHS 240727
OPUCHS

TEST...KCHS/KSAV Gateway Observations...TEST
National Weather Service Charleston SC
300 AM EDT THU MAY 24 2018

NOTE: "fair" indicates few or no clouds below 12,000 feet with no
significant weather and/or obstructions to visibility.

SCZ050-WAZ558-NCZ071-TXZ119-213-PAZ071-DCZ001-FLZ074-172-MI076-
NYZ176-178-MAZ016-IL014-TNZ027-NJZ106-GAZ044-MD014-240800-

...Gateway Observations for Charleston International...

CITY           SKY/WX    TMP DP  RH WIND       PRES   REMARKS
Chas Airport   FAIR      72  70  93 S3        30.06F
Seattle        MOCLDY    57  51  80 S5        29.93R
Charlotte      FAIR      71  69  93 CALM      30.09R
Dallas DFW     PTCLDY    75  67  76 SE7       30.04F
Dallas Love    PTCLDY    77  67  71 S10       30.05F
Philladelphia  FAIR      66  54  65 NW8       30.07S
Wash National  FAIR      65  61  87 S6        30.11S
Baltimore      FAIR      62  57  83 W3        30.09S
Miami          LGT RAIN  77  75  93 SE7       30.03F
Detroit        FAIR      63  51  65 SW3       30.20S
Newark         FAIR      68  51  54 NW9       30.03S
Laguardia      FAIR      67  52  58 NW8       30.02S
J F K          FAIR      69  50  50 NW12      30.03R
Boston Logan   FAIR      55  53  93 NE8       30.01R
Ft. Lauderdale MOCLDY    79  76  90 E9        30.02F
Chicago O`Hare FAIR      60  52  74 CALM      30.16F
Chicago Midway FAIR      61  52  72 CALM      30.16F
Houston Bush   FAIR      71  70  96 CALM      30.04F
Houston Hobby  FAIR      74  74 100 NE3       30.03F
Nashville      MOCLDY    69  65  86 CALM      30.09F
Atlanta        FOG       70  69  97 E7        30.07F VSB 1/2

$$

GAZ044-118-TXZ119-213-NCZ071-DCZ001-MDZ014-506-PAZ021-071-NJZ106-
NYZ176-178-MAZ106-OHZ011-021-055-MIZ076-KYZ091-ILZ014-INZ047-
MNZ060-ONZ431-240800-

...Gateway Observations for Savannah International...

CITY           SKY/WX    TMP DP  RH WIND       PRES   REMARKS
Savannah Arpt  FAIR      73  70  90 S5        30.07F
Atlanta        FOG       70  69  97 E7        30.07F VSB 1/2
Charlotte      FAIR      71  69  93 CALM      30.09R
Dallas DFW     PTCLDY    75  67  76 SE7       30.04F
Houston Bush   FAIR      71  70  96 CALM      30.04F
Wash National  FAIR      65  61  87 S6        30.11S
Wash Dulles    FAIR      58  56  93 CALM      30.13R
Baltimore      FAIR      62  57  83 W3        30.09S
Philadelphia   FAIR      66  54  65 NW8       30.07S
Newark         FAIR      68  51  54 NW9       30.03S
Laguardia      FAIR      67  52  58 NW8       30.02S
J F K          FAIR      69  50  50 NW12      30.03R
Boston         FAIR      55  53  93 NE8       30.01R
Pittsburg      FAIR      55  51  86 CALM      30.20S
Akron          FAIR      54  48  80 N3        30.21F
Cleveland      FAIR      56  52  86 CALM      30.22S
Cincinnati     FAIR      64  56  75 E6        30.17F
Columbus       FAIR      57  53  86 MISG      30.19F
Detroit        FAIR      63  51  65 SW3       30.20S
Chicago O`Hare FAIR      60  52  74 CALM      30.16F
Minneapolis    FAIR      73  66  78 SE7       30.04F
Indianapolis   FAIR      65  53  65 E7        30.17S
Toronto Canada CLEAR     57  48  72 VRB2      30.14S

$$




USA.gov is the U.S. government's official web portal to all federal, state and local government web resources and services.